{"data":{"norad_id":66256,"epoch":"2026-05-25T02:56:48.383808Z","epoch_age_seconds":68452,"freshness":"FRESH","line1":"1 66256U 25245Y   26145.12278222  .00005111  00000+0  18457-3 0  9992","line2":"2 66256  53.1605 288.5134 0001371 101.9525 258.1630 15.30198003 32968","mean_motion":15.30198003,"eccentricity":0.0001371,"inclination_deg":53.1605,"raan_deg":288.5134,"arg_perigee_deg":101.9525,"mean_anomaly_deg":258.163,"bstar":0.00018457,"rev_number":3296,"period_min":94.105468519553,"perigee_km":474.28143672164,"apogee_km":476.16062749405,"semimajor_km":6853.3580321078,"source":"CELESTRAK","updated_at":"2026-05-25T13:38:21.138254Z"}}